Погода в Городце

Россия / Нижегородская область     56°38′41″N   43°28′20″E
темп.,
°C
ветер,
м/с
пор.,
м/с
влажн.,
%
обл.,
%
осадки,
мм/ч
давл.,
гПа
погр.,
м
17 сентября, пт
пт1700:00+7сз4668100 0.1 1017508
03:00+7сз3572100 0.2 1017461
06:00+6сз3575100 0.1 1017355
09:00+7с456539 0.4 1018775
12:00+9ссз555291 0.0 10181647
15:00+9сз454799 0.1 10181771
18:00+8ссз4767100 0.1 1018974
21:00+5с488217 0.4 1019509
18 сентября, сб
сб1800:00+4с378446 0.0 1020431
03:00+6с4779100 0.1 1021604
06:00+5ссв4788100 0.1 1022415
09:00+7ссв567019 0.2 1023824
12:00+8с4453100 0.0 10241377
15:00+8ссз4559100 0.0 10241130
18:00+7ссз34629 0.0 1024465
21:00+4всв47745 0.0 1025215
19 сентября, вс
вс1900:00+3св34755 0.0 1026114
03:00+2всв248033 0.0 1026129
06:00+2всв2383100 0.0 1027115
09:00+5св2363100 0.0 1027405
12:00+8св234897 0.0 10271072
15:00+10св2343100 0.0 10251206
18:00+7всв3658100 0.0 1025430
21:00+5всв486886 0.0 1026310
20 сентября, пн
пн2000:00+4всв51075100 0.0 1026323
03:00+2всв61280100 0.0 1027390
06:00+2всв71379100 0.0 1027442
09:00+4в71166100 0.0 1027597
12:00+7в6954100 0.0 1027977
15:00+9в6848100 0.0 10261186
18:00+7в6105472 0.0 1026777
21:00+6в71259100 0.0 1026670
21 сентября, вт
вт2100:00+6в71359100 0.0 1025607
03:00+6в71360100 0.0 1024509
06:00+6в71363100 0.1 1023502
09:00+6в71463100 0.1 1022569
12:00+7в71360100 0.1 1021741
15:00+6в71481100 1.3 1020757
18:00+6в71488100 1.2 1020767
21:00+6в71288100 1.8 1019701